Year,Month,Day,Hour,Minute,Value (Times are PST for temperature in C)
2015,07,18,00,00,18.10
2015,07,18,00,01,18.10
2015,07,18,00,02,18.10
2015,07,18,00,03,18.00
2015,07,18,00,04,18.00
2015,07,18,00,05,18.00
2015,07,18,00,06,17.90
2015,07,18,00,07,17.90
2015,07,18,00,08,17.90
2015,07,18,00,09,17.80
2015,07,18,00,10,17.80
2015,07,18,00,11,17.80
2015,07,18,00,12,17.70
2015,07,18,00,13,17.70
2015,07,18,00,14,17.70
2015,07,18,00,15,17.70
2015,07,18,00,16,17.70
2015,07,18,00,17,17.70
2015,07,18,00,18,17.60
2015,07,18,00,19,17.60
2015,07,18,00,20,17.60
2015,07,18,00,21,17.60
2015,07,18,00,22,17.50
2015,07,18,00,23,17.50
2015,07,18,00,24,17.50
2015,07,18,00,25,17.50
2015,07,18,00,26,17.50
2015,07,18,00,27,17.50
2015,07,18,00,28,17.40
2015,07,18,00,29,17.40
2015,07,18,00,30,17.40
2015,07,18,00,31,17.40
2015,07,18,00,32,17.30
2015,07,18,00,33,17.30
2015,07,18,00,34,17.30
2015,07,18,00,35,17.30
2015,07,18,00,36,17.30
2015,07,18,00,37,17.30
2015,07,18,00,38,17.30
2015,07,18,00,39,17.30
2015,07,18,00,40,17.30
2015,07,18,00,41,17.30
2015,07,18,00,42,17.30
2015,07,18,00,43,17.30
2015,07,18,00,44,17.30
2015,07,18,00,45,17.30
2015,07,18,00,46,17.30
2015,07,18,00,47,17.30
2015,07,18,00,48,17.30
2015,07,18,00,49,17.30
2015,07,18,00,50,17.30
2015,07,18,00,51,17.30
2015,07,18,00,52,17.30
2015,07,18,00,53,17.30
2015,07,18,00,54,17.30
2015,07,18,00,55,17.30
2015,07,18,00,56,17.20
2015,07,18,00,57,17.20
2015,07,18,00,58,17.20
2015,07,18,00,59,17.20
2015,07,18,01,00,17.10
2015,07,18,01,01,17.10
2015,07,18,01,02,17.00
2015,07,18,01,03,17.00
2015,07,18,01,04,16.90
2015,07,18,01,05,16.90
2015,07,18,01,06,16.80
2015,07,18,01,07,16.80
2015,07,18,01,08,16.80
2015,07,18,01,09,16.80
2015,07,18,01,10,16.70
2015,07,18,01,11,16.70
2015,07,18,01,12,16.70
2015,07,18,01,13,16.70
2015,07,18,01,14,16.70
2015,07,18,01,15,16.70
2015,07,18,01,16,16.70
2015,07,18,01,17,16.70
2015,07,18,01,18,16.70
2015,07,18,01,19,16.70
2015,07,18,01,20,16.70
2015,07,18,01,21,16.70
2015,07,18,01,22,16.70
2015,07,18,01,23,16.80
2015,07,18,01,24,16.80
2015,07,18,01,25,16.80
2015,07,18,01,26,16.80
2015,07,18,01,27,16.80
2015,07,18,01,28,16.80
2015,07,18,01,29,16.70
2015,07,18,01,30,16.80
2015,07,18,01,31,16.70
2015,07,18,01,32,16.70
2015,07,18,01,33,16.70
2015,07,18,01,34,16.70
2015,07,18,01,35,16.70
2015,07,18,01,36,16.60
2015,07,18,01,37,16.60
2015,07,18,01,38,16.60
2015,07,18,01,39,16.50
2015,07,18,01,40,16.50
2015,07,18,01,41,16.50
2015,07,18,01,42,16.40
2015,07,18,01,43,16.40
2015,07,18,01,44,16.40
2015,07,18,01,45,16.40
2015,07,18,01,46,16.40
2015,07,18,01,47,16.40
2015,07,18,01,48,16.40
2015,07,18,01,49,16.40
2015,07,18,01,50,16.40
2015,07,18,01,51,16.40
2015,07,18,01,52,16.30
2015,07,18,01,53,16.30
2015,07,18,01,54,16.30
2015,07,18,01,55,16.30
2015,07,18,01,56,16.20
2015,07,18,01,57,16.20
2015,07,18,01,58,16.20
2015,07,18,01,59,16.20
2015,07,18,02,00,16.20
2015,07,18,02,01,16.10
2015,07,18,02,02,16.10
2015,07,18,02,03,16.10
2015,07,18,02,04,16.00
2015,07,18,02,05,16.00
2015,07,18,02,06,16.00
2015,07,18,02,07,16.00
2015,07,18,02,08,16.00
2015,07,18,02,09,16.00
2015,07,18,02,10,16.00
2015,07,18,02,11,15.90
2015,07,18,02,12,15.90
2015,07,18,02,13,15.90
2015,07,18,02,14,15.90
2015,07,18,02,15,15.90
2015,07,18,02,16,15.90
2015,07,18,02,17,15.90
2015,07,18,02,18,16.00
2015,07,18,02,19,16.00
2015,07,18,02,20,16.00
2015,07,18,02,21,16.00
2015,07,18,02,22,16.00
2015,07,18,02,23,16.00
2015,07,18,02,24,16.00
2015,07,18,02,25,16.00
2015,07,18,02,26,16.00
2015,07,18,02,27,16.00
2015,07,18,02,28,16.00
2015,07,18,02,29,16.00
2015,07,18,02,30,15.90
2015,07,18,02,31,15.90
2015,07,18,02,32,15.90
2015,07,18,02,33,15.80
2015,07,18,02,34,15.80
2015,07,18,02,35,15.80
2015,07,18,02,36,15.70
2015,07,18,02,37,15.70
2015,07,18,02,38,15.60
2015,07,18,02,39,15.60
2015,07,18,02,40,15.60
2015,07,18,02,41,15.50
2015,07,18,02,42,15.50
2015,07,18,02,43,15.50
2015,07,18,02,44,15.50
2015,07,18,02,45,15.40
2015,07,18,02,46,15.40
2015,07,18,02,47,15.40
2015,07,18,02,48,15.40
2015,07,18,02,49,15.30
2015,07,18,02,50,15.30
2015,07,18,02,51,15.30
2015,07,18,02,52,15.30
2015,07,18,02,53,15.30
2015,07,18,02,54,15.30
2015,07,18,02,55,15.30
2015,07,18,02,56,15.40
2015,07,18,02,57,15.40
2015,07,18,02,58,15.40
2015,07,18,02,59,15.40
2015,07,18,03,00,15.40
2015,07,18,03,01,15.40
2015,07,18,03,02,15.50
2015,07,18,03,03,15.50
2015,07,18,03,04,15.50
2015,07,18,03,05,15.60
2015,07,18,03,06,15.60
2015,07,18,03,07,15.60
2015,07,18,03,08,15.70
2015,07,18,03,09,15.70
2015,07,18,03,10,15.60
2015,07,18,03,11,15.60
2015,07,18,03,12,15.60
2015,07,18,03,13,15.60
2015,07,18,03,14,15.50
2015,07,18,03,15,15.50
2015,07,18,03,16,15.50
2015,07,18,03,17,15.50
2015,07,18,03,18,15.40
2015,07,18,03,19,15.40
2015,07,18,03,20,15.40
2015,07,18,03,21,15.40
2015,07,18,03,22,15.50
2015,07,18,03,23,15.40
2015,07,18,03,24,15.40
2015,07,18,03,25,15.50
2015,07,18,03,26,15.40
2015,07,18,03,27,15.40
2015,07,18,03,28,15.40
2015,07,18,03,29,15.40
2015,07,18,03,30,15.40
2015,07,18,03,31,15.40
2015,07,18,03,32,15.30
2015,07,18,03,33,15.30
2015,07,18,03,34,15.30
2015,07,18,03,35,15.30
2015,07,18,03,36,15.30
2015,07,18,03,37,15.30
2015,07,18,03,38,15.20
2015,07,18,03,39,15.20
2015,07,18,03,40,15.20
2015,07,18,03,41,15.20
2015,07,18,03,42,15.20
2015,07,18,03,43,15.20
2015,07,18,03,44,15.20
2015,07,18,03,45,15.20
2015,07,18,03,46,15.10
2015,07,18,03,47,15.10
2015,07,18,03,48,15.10
2015,07,18,03,49,15.10
2015,07,18,03,50,15.10
2015,07,18,03,51,15.00
2015,07,18,03,52,15.00
2015,07,18,03,53,15.00
2015,07,18,03,54,15.00
2015,07,18,03,55,15.00
2015,07,18,03,56,14.90
2015,07,18,03,57,14.90
2015,07,18,03,58,14.90
2015,07,18,03,59,14.80
2015,07,18,04,00,14.80
2015,07,18,04,01,14.80
2015,07,18,04,02,14.70
2015,07,18,04,03,14.70
2015,07,18,04,04,14.60
2015,07,18,04,05,14.60
2015,07,18,04,06,14.60
2015,07,18,04,07,14.50
2015,07,18,04,08,14.50
2015,07,18,04,09,14.40
2015,07,18,04,10,14.40
2015,07,18,04,11,14.40
2015,07,18,04,12,14.30
2015,07,18,04,13,14.30
2015,07,18,04,14,14.30
2015,07,18,04,15,14.30
2015,07,18,04,16,14.20
2015,07,18,04,17,14.20
2015,07,18,04,18,14.20
2015,07,18,04,19,14.20
2015,07,18,04,20,14.20
2015,07,18,04,21,14.20
2015,07,18,04,22,14.20
2015,07,18,04,23,14.20
2015,07,18,04,24,14.10
2015,07,18,04,25,14.10
2015,07,18,04,26,14.10
2015,07,18,04,27,14.10
2015,07,18,04,28,14.10
2015,07,18,04,29,14.10
2015,07,18,04,30,14.00
2015,07,18,04,31,14.00
2015,07,18,04,32,14.00
2015,07,18,04,33,14.10
2015,07,18,04,34,14.10
2015,07,18,04,35,14.10
2015,07,18,04,36,14.20
2015,07,18,04,37,14.20
2015,07,18,04,38,14.20
2015,07,18,04,39,14.20
2015,07,18,04,40,14.20
2015,07,18,04,41,14.20
2015,07,18,04,42,14.20
2015,07,18,04,43,14.20
2015,07,18,04,44,14.20
2015,07,18,04,45,14.20
2015,07,18,04,46,14.20
2015,07,18,04,47,14.20
2015,07,18,04,48,14.20
2015,07,18,04,49,14.20
2015,07,18,04,50,14.20
2015,07,18,04,51,14.20
2015,07,18,04,52,14.20
2015,07,18,04,53,14.30
2015,07,18,04,54,14.30
2015,07,18,04,55,14.30
2015,07,18,04,56,14.30
2015,07,18,04,57,14.40
2015,07,18,04,58,14.40
2015,07,18,04,59,14.40
2015,07,18,05,00,14.40
2015,07,18,05,01,14.40
2015,07,18,05,02,14.40
2015,07,18,05,03,14.40
2015,07,18,05,04,14.40
2015,07,18,05,05,14.40
2015,07,18,05,06,14.40
2015,07,18,05,07,14.40
2015,07,18,05,08,14.30
2015,07,18,05,09,14.30
2015,07,18,05,10,14.30
2015,07,18,05,11,14.20
2015,07,18,05,12,14.10
2015,07,18,05,13,14.10
2015,07,18,05,14,14.00
2015,07,18,05,15,14.00
2015,07,18,05,16,13.90
2015,07,18,05,17,13.90
2015,07,18,05,18,13.90
2015,07,18,05,19,13.90
2015,07,18,05,20,13.90
2015,07,18,05,21,13.90
2015,07,18,05,22,13.90
2015,07,18,05,23,13.90
2015,07,18,05,24,13.90
2015,07,18,05,25,13.90
2015,07,18,05,26,13.90
2015,07,18,05,27,13.90
2015,07,18,05,28,13.90
2015,07,18,05,29,13.90
2015,07,18,05,30,13.90
2015,07,18,05,31,13.90
2015,07,18,05,32,14.00
2015,07,18,05,33,14.00
2015,07,18,05,34,14.00
2015,07,18,05,35,14.00
2015,07,18,05,36,14.00
2015,07,18,05,37,14.10
2015,07,18,05,38,14.10
2015,07,18,05,39,14.10
2015,07,18,05,40,14.10
2015,07,18,05,41,14.10
2015,07,18,05,42,14.10
2015,07,18,05,43,14.10
2015,07,18,05,44,14.10
2015,07,18,05,45,14.20
2015,07,18,05,46,14.20
2015,07,18,05,47,14.20
2015,07,18,05,48,14.20
2015,07,18,05,49,14.20
2015,07,18,05,50,14.20
2015,07,18,05,51,14.20
2015,07,18,05,52,14.20
2015,07,18,05,53,14.20
2015,07,18,05,54,14.30
2015,07,18,05,55,14.30
2015,07,18,05,56,14.30
2015,07,18,05,57,14.30
2015,07,18,05,58,14.30
2015,07,18,05,59,14.30
2015,07,18,06,00,14.40
2015,07,18,06,01,14.40
2015,07,18,06,02,14.40
2015,07,18,06,03,14.40
2015,07,18,06,04,14.40
2015,07,18,06,05,14.40
2015,07,18,06,06,14.40
2015,07,18,06,07,14.40
2015,07,18,06,08,14.40
2015,07,18,06,09,14.40
2015,07,18,06,10,14.40
2015,07,18,06,11,14.40
2015,07,18,06,12,14.40
2015,07,18,06,13,14.40
2015,07,18,06,14,14.40
2015,07,18,06,15,14.40
2015,07,18,06,16,14.40
2015,07,18,06,17,14.40
2015,07,18,06,18,14.30
2015,07,18,06,19,14.30
2015,07,18,06,20,14.30
2015,07,18,06,21,14.30
2015,07,18,06,22,14.30
2015,07,18,06,23,14.30
2015,07,18,06,24,14.30
2015,07,18,06,25,14.30
2015,07,18,06,26,14.30
2015,07,18,06,27,14.30
2015,07,18,06,28,14.30
2015,07,18,06,29,14.30
2015,07,18,06,30,14.30
2015,07,18,06,31,14.30
2015,07,18,06,32,14.30
2015,07,18,06,33,14.30
2015,07,18,06,34,14.30
2015,07,18,06,35,14.30
2015,07,18,06,36,14.40
2015,07,18,06,37,14.40
2015,07,18,06,38,14.40
2015,07,18,06,39,14.40
2015,07,18,06,40,14.50
2015,07,18,06,41,14.50
2015,07,18,06,42,14.60
2015,07,18,06,43,14.60
2015,07,18,06,44,14.70
2015,07,18,06,45,14.70
2015,07,18,06,46,14.70
2015,07,18,06,47,14.80
2015,07,18,06,48,14.90
2015,07,18,06,49,14.90
2015,07,18,06,50,15.00
2015,07,18,06,51,15.10
2015,07,18,06,52,15.10
2015,07,18,06,53,15.20
2015,07,18,06,54,15.30
2015,07,18,06,55,15.40
2015,07,18,06,56,15.40
2015,07,18,06,57,15.50
2015,07,18,06,58,15.60
2015,07,18,06,59,15.70
2015,07,18,07,00,15.80
2015,07,18,07,01,15.90
2015,07,18,07,02,16.00
2015,07,18,07,03,16.10
2015,07,18,07,04,16.20
2015,07,18,07,05,16.30
2015,07,18,07,06,16.30
2015,07,18,07,07,16.40
2015,07,18,07,08,16.40
2015,07,18,07,09,16.50
2015,07,18,07,10,16.60
2015,07,18,07,11,16.60
2015,07,18,07,12,16.70
2015,07,18,07,13,16.80
2015,07,18,07,14,16.80
2015,07,18,07,15,16.90
2015,07,18,07,16,17.00
2015,07,18,07,17,17.10
2015,07,18,07,18,17.10
2015,07,18,07,19,17.20
2015,07,18,07,20,17.20
2015,07,18,07,21,17.30
2015,07,18,07,22,17.40
2015,07,18,07,23,17.40
2015,07,18,07,24,17.50
2015,07,18,07,25,17.60
2015,07,18,07,26,17.60
2015,07,18,07,27,17.70
2015,07,18,07,28,17.80
2015,07,18,07,29,17.80
2015,07,18,07,30,17.90
2015,07,18,07,31,18.00
2015,07,18,07,32,18.00
2015,07,18,07,33,18.10
2015,07,18,07,34,18.20
2015,07,18,07,35,18.30
2015,07,18,07,36,18.30
2015,07,18,07,37,18.40
2015,07,18,07,38,18.40
2015,07,18,07,39,18.50
2015,07,18,07,40,18.50
2015,07,18,07,41,18.60
2015,07,18,07,42,18.70
2015,07,18,07,43,18.70
2015,07,18,07,44,18.80
2015,07,18,07,45,18.80
2015,07,18,07,46,18.90
2015,07,18,07,47,18.90
2015,07,18,07,48,19.00
2015,07,18,07,49,19.10
2015,07,18,07,50,19.20
2015,07,18,07,51,19.20
2015,07,18,07,52,19.30
2015,07,18,07,53,19.40
2015,07,18,07,54,19.50
2015,07,18,07,55,19.60
2015,07,18,07,56,19.60
2015,07,18,07,57,19.70
2015,07,18,07,58,19.80
2015,07,18,07,59,19.80
2015,07,18,08,00,19.80
2015,07,18,08,01,19.80
2015,07,18,08,02,19.90
2015,07,18,08,03,19.90
2015,07,18,08,04,20.00
2015,07,18,08,05,20.00
2015,07,18,08,06,20.10
2015,07,18,08,07,20.20
2015,07,18,08,08,20.30
2015,07,18,08,09,20.40
2015,07,18,08,10,20.50
2015,07,18,08,11,20.60
2015,07,18,08,12,20.70
2015,07,18,08,13,20.70
2015,07,18,08,14,20.80
2015,07,18,08,15,20.80
2015,07,18,08,16,20.80
2015,07,18,08,17,20.90
2015,07,18,08,18,20.90
2015,07,18,08,19,21.00
2015,07,18,08,20,21.00
2015,07,18,08,21,21.10
2015,07,18,08,22,21.10
2015,07,18,08,23,21.20
2015,07,18,08,24,21.30
2015,07,18,08,25,21.30
2015,07,18,08,26,21.50
2015,07,18,08,27,21.50
2015,07,18,08,28,21.60
2015,07,18,08,29,21.70
2015,07,18,08,30,21.60
2015,07,18,08,31,21.40
2015,07,18,08,32,21.20
2015,07,18,08,33,21.10
2015,07,18,08,34,21.00
2015,07,18,08,35,20.90
2015,07,18,08,36,20.90
2015,07,18,08,37,20.90
2015,07,18,08,38,20.90
2015,07,18,08,39,21.00
2015,07,18,08,40,20.90
2015,07,18,08,41,21.00
2015,07,18,08,42,20.90
2015,07,18,08,43,20.90
2015,07,18,08,44,20.90
2015,07,18,08,45,20.90
2015,07,18,08,46,20.90
2015,07,18,08,47,20.90
2015,07,18,08,48,21.00
2015,07,18,08,49,21.00
2015,07,18,08,50,21.00
2015,07,18,08,51,21.00
2015,07,18,08,52,21.00
2015,07,18,08,53,20.90
2015,07,18,08,54,20.90
2015,07,18,08,55,21.00
2015,07,18,08,56,21.00
2015,07,18,08,57,21.00
2015,07,18,08,58,21.10
2015,07,18,08,59,21.10
2015,07,18,09,00,21.10
2015,07,18,09,01,21.10
2015,07,18,09,02,21.10
2015,07,18,09,03,21.20
2015,07,18,09,04,21.30
2015,07,18,09,05,21.40
2015,07,18,09,06,21.50
2015,07,18,09,07,21.70
2015,07,18,09,08,21.80
2015,07,18,09,09,21.80
2015,07,18,09,10,21.90
2015,07,18,09,11,22.00
2015,07,18,09,12,22.10
2015,07,18,09,13,22.20
2015,07,18,09,14,22.30
2015,07,18,09,15,22.40
2015,07,18,09,16,22.40
2015,07,18,09,17,22.40
2015,07,18,09,18,22.40
2015,07,18,09,19,22.40
2015,07,18,09,20,22.40
2015,07,18,09,21,22.40
2015,07,18,09,22,22.40
2015,07,18,09,23,22.40
2015,07,18,09,24,22.50
2015,07,18,09,25,22.60
2015,07,18,09,26,22.60
2015,07,18,09,27,22.60
2015,07,18,09,28,22.60
2015,07,18,09,29,22.40
2015,07,18,09,30,22.20
2015,07,18,09,31,22.00
2015,07,18,09,32,21.90
2015,07,18,09,33,21.80
2015,07,18,09,34,21.70
2015,07,18,09,35,21.50
2015,07,18,09,36,21.40
2015,07,18,09,37,21.40
2015,07,18,09,38,21.50
2015,07,18,09,39,21.60
2015,07,18,09,40,21.60
2015,07,18,09,41,21.50
2015,07,18,09,42,21.40
2015,07,18,09,43,21.30
2015,07,18,09,44,21.20
2015,07,18,09,45,21.10
2015,07,18,09,46,21.10
2015,07,18,09,47,21.10
2015,07,18,09,48,21.00
2015,07,18,09,49,20.90
2015,07,18,09,50,20.80
2015,07,18,09,51,20.80
2015,07,18,09,52,20.80
2015,07,18,09,53,20.80
2015,07,18,09,54,20.80
2015,07,18,09,55,20.90
2015,07,18,09,56,21.00
2015,07,18,09,57,21.10
2015,07,18,09,58,21.20
2015,07,18,09,59,21.20
2015,07,18,10,00,21.20
2015,07,18,10,01,21.30
2015,07,18,10,02,21.40
2015,07,18,10,03,21.50
2015,07,18,10,04,21.60
2015,07,18,10,05,21.80
2015,07,18,10,06,21.90
2015,07,18,10,07,22.10
2015,07,18,10,08,22.20
2015,07,18,10,09,22.40
2015,07,18,10,10,22.60
2015,07,18,10,11,22.70
2015,07,18,10,12,22.90
2015,07,18,10,13,23.10
2015,07,18,10,14,23.20
2015,07,18,10,15,23.30
2015,07,18,10,16,23.30
2015,07,18,10,17,23.30
2015,07,18,10,18,23.30
2015,07,18,10,19,23.30
2015,07,18,10,20,23.30
2015,07,18,10,21,23.30
2015,07,18,10,22,23.40
2015,07,18,10,23,23.50
2015,07,18,10,24,23.70
2015,07,18,10,25,23.70
2015,07,18,10,26,23.70
2015,07,18,10,27,23.70
2015,07,18,10,28,23.60
2015,07,18,10,29,23.60
2015,07,18,10,30,23.60
2015,07,18,10,31,23.60
2015,07,18,10,32,23.60
2015,07,18,10,33,23.60
2015,07,18,10,34,23.60
2015,07,18,10,35,23.60
2015,07,18,10,36,23.60
2015,07,18,10,37,23.60
2015,07,18,10,38,23.60
2015,07,18,10,39,23.60
2015,07,18,10,40,23.60
2015,07,18,10,41,23.80
2015,07,18,10,42,23.90
2015,07,18,10,43,24.10
2015,07,18,10,44,24.20
2015,07,18,10,45,24.20
2015,07,18,10,46,24.20
2015,07,18,10,47,24.10
2015,07,18,10,48,24.00
2015,07,18,10,49,23.90
2015,07,18,10,50,23.90
2015,07,18,10,51,23.90
2015,07,18,10,52,23.90
2015,07,18,10,53,24.00
2015,07,18,10,54,24.00
2015,07,18,10,55,23.90
2015,07,18,10,56,23.90
2015,07,18,10,57,23.90
2015,07,18,10,58,23.80
2015,07,18,10,59,23.80
2015,07,18,11,00,23.90
2015,07,18,11,01,24.00
2015,07,18,11,02,24.10
2015,07,18,11,03,24.10
2015,07,18,11,04,24.10
2015,07,18,11,05,24.00
2015,07,18,11,06,24.00
2015,07,18,11,07,23.90
2015,07,18,11,08,23.80
2015,07,18,11,09,23.80
2015,07,18,11,10,23.80
2015,07,18,11,11,23.80
2015,07,18,11,12,23.80
2015,07,18,11,13,23.90
2015,07,18,11,14,24.00
2015,07,18,11,15,24.00
2015,07,18,11,16,24.20
2015,07,18,11,17,24.20
2015,07,18,11,18,24.20
2015,07,18,11,19,24.20
2015,07,18,11,20,24.20
2015,07,18,11,21,24.30
2015,07,18,11,22,24.20
2015,07,18,11,23,24.20
2015,07,18,11,24,24.10
2015,07,18,11,25,24.10
2015,07,18,11,26,24.10
2015,07,18,11,27,24.10
2015,07,18,11,28,24.10
2015,07,18,11,29,24.10
2015,07,18,11,30,24.10
2015,07,18,11,31,24.20
2015,07,18,11,32,24.20
2015,07,18,11,33,24.30
2015,07,18,11,34,24.30
2015,07,18,11,35,24.30
2015,07,18,11,36,24.40
2015,07,18,11,37,24.40
2015,07,18,11,38,24.40
2015,07,18,11,39,24.50
2015,07,18,11,40,24.50
2015,07,18,11,41,24.60
2015,07,18,11,42,24.60
2015,07,18,11,43,24.70
2015,07,18,11,44,24.70
2015,07,18,11,45,24.70
2015,07,18,11,46,24.70
2015,07,18,11,47,24.80
2015,07,18,11,48,24.80
2015,07,18,11,49,24.80
2015,07,18,11,50,24.90
2015,07,18,11,51,24.90
2015,07,18,11,52,24.90
2015,07,18,11,53,24.90
2015,07,18,11,54,25.00
2015,07,18,11,55,25.00
2015,07,18,11,56,25.00
2015,07,18,11,57,25.00
2015,07,18,11,58,25.10
2015,07,18,11,59,25.10
2015,07,18,12,00,25.10
2015,07,18,12,01,25.20
2015,07,18,12,02,25.20
2015,07,18,12,03,25.20
2015,07,18,12,04,25.20
2015,07,18,12,05,25.20
2015,07,18,12,06,25.20
2015,07,18,12,07,25.20
2015,07,18,12,08,25.20
2015,07,18,12,09,25.20
2015,07,18,12,10,25.30
2015,07,18,12,11,25.30
2015,07,18,12,12,25.30
2015,07,18,12,13,25.40
2015,07,18,12,14,25.40
2015,07,18,12,15,25.50
2015,07,18,12,16,25.50
2015,07,18,12,17,25.40
2015,07,18,12,18,25.30
2015,07,18,12,19,25.30
2015,07,18,12,20,25.30
2015,07,18,12,21,25.30
2015,07,18,12,22,25.30
2015,07,18,12,23,25.40
2015,07,18,12,24,25.50
2015,07,18,12,25,25.50
2015,07,18,12,26,25.50
2015,07,18,12,27,25.60
2015,07,18,12,28,25.50
2015,07,18,12,29,25.50
2015,07,18,12,30,25.60
2015,07,18,12,31,25.60
2015,07,18,12,32,25.70
2015,07,18,12,33,25.70
2015,07,18,12,34,25.80
2015,07,18,12,35,25.80
2015,07,18,12,36,25.80
2015,07,18,12,37,25.90
2015,07,18,12,38,25.90
2015,07,18,12,39,26.00
2015,07,18,12,40,26.10
2015,07,18,12,41,26.10
2015,07,18,12,42,26.10
2015,07,18,12,43,26.10
2015,07,18,12,44,26.00
2015,07,18,12,45,26.00
2015,07,18,12,46,25.90
2015,07,18,12,47,25.90
2015,07,18,12,48,25.90
2015,07,18,12,49,25.90
2015,07,18,12,50,25.90
2015,07,18,12,51,26.00
2015,07,18,12,52,26.10
2015,07,18,12,53,26.20
2015,07,18,12,54,26.30
2015,07,18,12,55,26.40
2015,07,18,12,56,26.60
2015,07,18,12,57,26.70
2015,07,18,12,58,26.70
2015,07,18,12,59,26.40
2015,07,18,13,00,26.10
2015,07,18,13,01,25.80
2015,07,18,13,02,25.50
2015,07,18,13,03,25.30
2015,07,18,13,04,25.20
2015,07,18,13,05,25.20
2015,07,18,13,06,25.20
2015,07,18,13,07,25.10
2015,07,18,13,08,24.90
2015,07,18,13,09,24.90
2015,07,18,13,10,24.80
2015,07,18,13,11,24.80
2015,07,18,13,12,24.90
2015,07,18,13,13,25.00
2015,07,18,13,14,25.00
2015,07,18,13,15,24.90
2015,07,18,13,16,24.90
2015,07,18,13,17,25.00
2015,07,18,13,18,25.10
2015,07,18,13,19,25.20
2015,07,18,13,20,25.20
2015,07,18,13,21,25.30
2015,07,18,13,22,25.30
2015,07,18,13,23,25.30
2015,07,18,13,24,25.20
2015,07,18,13,25,25.10
2015,07,18,13,26,25.00
2015,07,18,13,27,24.90
2015,07,18,13,28,24.80
2015,07,18,13,29,24.70
2015,07,18,13,30,24.70
2015,07,18,13,31,24.70
2015,07,18,13,32,24.70
2015,07,18,13,33,24.70
2015,07,18,13,34,24.70
2015,07,18,13,35,24.60
2015,07,18,13,36,24.50
2015,07,18,13,37,24.40
2015,07,18,13,38,24.40
2015,07,18,13,39,24.30
2015,07,18,13,40,24.20
2015,07,18,13,41,24.20
2015,07,18,13,42,24.30
2015,07,18,13,43,24.40
2015,07,18,13,44,24.50
2015,07,18,13,45,24.60
2015,07,18,13,46,24.70
2015,07,18,13,47,24.80
2015,07,18,13,48,24.80
2015,07,18,13,49,24.80
2015,07,18,13,50,24.90
2015,07,18,13,51,24.90
2015,07,18,13,52,24.90
2015,07,18,13,53,24.90
2015,07,18,13,54,25.00
2015,07,18,13,55,25.10
2015,07,18,13,56,25.20
2015,07,18,13,57,25.30
2015,07,18,13,58,25.40
2015,07,18,13,59,25.60
2015,07,18,14,00,25.70
2015,07,18,14,01,25.70
2015,07,18,14,02,25.80
2015,07,18,14,03,25.80
2015,07,18,14,04,25.90
2015,07,18,14,05,26.00
2015,07,18,14,06,26.00
2015,07,18,14,07,26.00
2015,07,18,14,08,26.00
2015,07,18,14,09,26.10
2015,07,18,14,10,26.20
2015,07,18,14,11,26.30
2015,07,18,14,12,26.40
2015,07,18,14,13,26.40
2015,07,18,14,14,26.50
2015,07,18,14,15,26.50
2015,07,18,14,16,26.60
2015,07,18,14,17,26.70
2015,07,18,14,18,26.80
2015,07,18,14,19,26.90
2015,07,18,14,20,26.90
2015,07,18,14,21,26.90
2015,07,18,14,22,26.80
2015,07,18,14,23,26.70
2015,07,18,14,24,26.60
2015,07,18,14,25,26.50
2015,07,18,14,26,26.50
2015,07,18,14,27,26.50
2015,07,18,14,28,26.50
2015,07,18,14,29,26.50
2015,07,18,14,30,26.50
2015,07,18,14,31,26.50
2015,07,18,14,32,26.60
2015,07,18,14,33,26.60
2015,07,18,14,34,26.60
2015,07,18,14,35,26.70
2015,07,18,14,36,26.80
2015,07,18,14,37,26.80
2015,07,18,14,38,26.80
2015,07,18,14,39,26.80
2015,07,18,14,40,26.80
2015,07,18,14,41,26.80
2015,07,18,14,42,26.80
2015,07,18,14,43,26.90
2015,07,18,14,44,27.00
2015,07,18,14,45,27.20
2015,07,18,14,46,27.30
2015,07,18,14,47,27.40
2015,07,18,14,48,27.40
2015,07,18,14,49,27.50
2015,07,18,14,50,27.50
2015,07,18,14,51,27.50
2015,07,18,14,52,27.50
2015,07,18,14,53,27.60
2015,07,18,14,54,27.70
2015,07,18,14,55,27.80
2015,07,18,14,56,27.70
2015,07,18,14,57,27.70
2015,07,18,14,58,27.50
2015,07,18,14,59,27.40
2015,07,18,15,00,27.30
2015,07,18,15,01,27.30
2015,07,18,15,02,27.30
2015,07,18,15,03,27.30
2015,07,18,15,04,27.10
2015,07,18,15,05,27.10
2015,07,18,15,06,27.10
2015,07,18,15,07,27.10
2015,07,18,15,08,27.20
2015,07,18,15,09,27.30
2015,07,18,15,10,27.50
2015,07,18,15,11,27.60
2015,07,18,15,12,27.80
2015,07,18,15,13,27.80
2015,07,18,15,14,27.90
2015,07,18,15,15,28.00
2015,07,18,15,16,28.10
2015,07,18,15,17,28.20
2015,07,18,15,18,28.40
2015,07,18,15,19,28.50
2015,07,18,15,20,28.60
2015,07,18,15,21,28.70
2015,07,18,15,22,28.80
2015,07,18,15,23,28.80
2015,07,18,15,24,28.90
2015,07,18,15,25,28.90
2015,07,18,15,26,29.00
2015,07,18,15,27,29.00
2015,07,18,15,28,29.10
2015,07,18,15,29,29.10
2015,07,18,15,30,29.10
2015,07,18,15,31,29.20
2015,07,18,15,32,29.30
2015,07,18,15,33,29.50
2015,07,18,15,34,29.60
2015,07,18,15,35,29.60
2015,07,18,15,36,29.70
2015,07,18,15,37,29.80
2015,07,18,15,38,29.90
2015,07,18,15,39,30.00
2015,07,18,15,40,30.00
2015,07,18,15,41,30.10
2015,07,18,15,42,30.10
2015,07,18,15,43,30.10
2015,07,18,15,44,30.10
2015,07,18,15,45,30.10
2015,07,18,15,46,30.10
2015,07,18,15,47,30.10
2015,07,18,15,48,30.20
2015,07,18,15,49,30.30
2015,07,18,15,50,30.30
2015,07,18,15,51,30.30
2015,07,18,15,52,30.40
2015,07,18,15,53,30.50
2015,07,18,15,54,30.50
2015,07,18,15,55,30.60
2015,07,18,15,56,30.60
2015,07,18,15,57,30.70
2015,07,18,15,58,30.70
2015,07,18,15,59,30.70
2015,07,18,16,00,30.70
2015,07,18,16,01,30.80
2015,07,18,16,02,30.80
2015,07,18,16,03,30.80
2015,07,18,16,04,30.70
2015,07,18,16,05,30.70
2015,07,18,16,06,30.70
2015,07,18,16,07,30.70
2015,07,18,16,08,30.70
2015,07,18,16,09,30.70
2015,07,18,16,10,30.70
2015,07,18,16,11,30.80
2015,07,18,16,12,30.80
2015,07,18,16,13,30.90
2015,07,18,16,14,31.00
2015,07,18,16,15,31.00
2015,07,18,16,16,31.10
2015,07,18,16,17,31.10
2015,07,18,16,18,31.20
2015,07,18,16,19,31.10
2015,07,18,16,20,31.00
2015,07,18,16,21,30.80
2015,07,18,16,22,30.60
2015,07,18,16,23,30.40
2015,07,18,16,24,30.20
2015,07,18,16,25,30.00
2015,07,18,16,26,29.80
2015,07,18,16,27,29.40
2015,07,18,16,28,29.10
2015,07,18,16,29,28.90
2015,07,18,16,30,28.80
2015,07,18,16,31,28.70
2015,07,18,16,32,28.60
2015,07,18,16,33,28.60
2015,07,18,16,34,28.50
2015,07,18,16,35,28.50
2015,07,18,16,36,28.50
2015,07,18,16,37,28.40
2015,07,18,16,38,28.40
2015,07,18,16,39,28.30
2015,07,18,16,40,28.30
2015,07,18,16,41,28.40
2015,07,18,16,42,28.40
2015,07,18,16,43,28.30
2015,07,18,16,44,28.30
2015,07,18,16,45,28.20
2015,07,18,16,46,28.20
2015,07,18,16,47,28.20
2015,07,18,16,48,28.10
2015,07,18,16,49,28.10
2015,07,18,16,50,28.10
2015,07,18,16,51,28.10
2015,07,18,16,52,28.00
2015,07,18,16,53,27.90
2015,07,18,16,54,27.60
2015,07,18,16,55,27.30
2015,07,18,16,56,27.00
2015,07,18,16,57,26.80
2015,07,18,16,58,26.60
2015,07,18,16,59,26.50
2015,07,18,17,00,26.30
2015,07,18,17,01,26.20
2015,07,18,17,02,26.20
2015,07,18,17,03,26.20
2015,07,18,17,04,26.20
2015,07,18,17,05,26.20
2015,07,18,17,06,26.20
2015,07,18,17,07,26.20
2015,07,18,17,08,26.10
2015,07,18,17,09,26.10
2015,07,18,17,10,26.20
2015,07,18,17,11,26.30
2015,07,18,17,12,26.30
2015,07,18,17,13,26.30
2015,07,18,17,14,26.30
2015,07,18,17,15,26.30
2015,07,18,17,16,26.40
2015,07,18,17,17,26.40
2015,07,18,17,18,26.50
2015,07,18,17,19,26.60